カタログに戻る

STARLINK-33748

運用中通信VLEO
NORAD 63383·PAYLOAD·🇺🇸 United States

打ち上げ Mar 26, 2025 から Vandenberg Space Force Base

Loading…

次のパス (今後24時間)

TLE

最新Source: CelesTrak SupGP

元期: Sep 14, 2026, 21:02 UTC

1 63383C 25063W   26257.87687500  .00049975  00000+0  14767-2 0  2579
2 63383  53.1572 261.8776 0001134  98.2772 123.2053 15.34362758    10

AllMySatでSTARLINK-33748をリアルタイム追跡

Download on the App Store